COMO2: Grand River, Commerce, OK

Data processed at Sat Mar 10 2018 23:36


All information presented herein is the property of the government of the United States of America and may be revised or deleted at any time without prior notice.
Dissemination of this information without the expressed written consent of the Public Affairs Office, Tulsa District U.S. Army Corps of Engineers is strictly prohibited.
These data are gathered electronically and, as presented, have not undergone any form of quality control. These data are not guaranteed to be valid or correct.
Go to home page.
Go to station list.

Upstream stations:

Downstream station:
Previous Day
Next Day
Current Day
    
SHEF ID:       COMO2     Neosho River nr Commerce, OK
STATION TYPE:  

               PRECIP     STAGE  STAGE(2)  RIV-FLOW  BAT-LOAD
                   in        ft        ft       cfs      volt
              Ccp-Rev   Ccp-Rev   Ccp-Rev   Ccp-Rev   Ccp-Rev
(US/Central)
03/08 00:00      0.00      2.99      2.95       628     12.57
03/08 01:00      0.00      2.99      2.94       628     12.57
03/08 02:00      0.00      2.99      2.94       628     12.57
03/08 03:00      0.00      2.99      2.93       628     12.57
03/08 04:00      0.00      2.98      2.93       618     12.49
03/08 05:00      0.00      2.98      2.94       618     12.49
03/08 06:00      0.00      2.98      2.93       618     12.49
03/08 07:00      0.00      2.97      2.93       607     12.49
03/08 08:00      0.00      2.97      2.92       607     13.21
03/08 09:00      0.00      2.97      2.92       607     13.68
03/08 10:00      0.00      2.96      2.92       597     13.84
03/08 11:00      0.00      2.96      2.91       597     13.68
03/08 12:00      0.00      2.96      2.92       597     13.68
03/08 13:00      0.00      2.96      2.91       597     13.37
03/08 14:00      0.00      2.95      2.91       587     12.97
03/08 15:00      0.00      2.95      2.91       587     12.89
03/08 16:00      0.00      2.95      2.90       587     12.81
03/08 17:00      0.00      2.94      2.90       577     12.81
03/08 18:00      0.00      2.94      2.90       577     12.73
03/08 19:00      0.00      2.94      2.89       577     12.73
03/08 20:00      0.00      2.94      2.89       577     12.65
03/08 21:00      0.00      2.93      2.92       567     12.65
03/08 22:00      0.00      2.93      2.89       567     12.65
03/08 23:00      0.00      2.93      2.89       567     12.65